Tracking 17142 objects as of 27-May-2015
HD Live streaming from Space Station

COSMOS 2251 DEB

Track COSMOS 2251 DEB now!
10-day predictions
COSMOS 2251 DEB is classified as:


NORAD ID: 35970
Int'l Code: 1993-036AVL
Perigee: 685.8 km
Apogee: 745.7 km
Inclination: 74.0 °
Period: 99.0 minutes
Semi major axis: 7086 km
RCS: 0.0106 m2 (small)
Launch date: June 16, 1993
Source: Commonwealth of Independent States (former USSR) (CIS)

Note: This is SATELLITE DEBRIS
Your satellite tracking list
Your tracking list is empty





NASA's NSSDC Master Catalog

Two Line Element Set (TLE):
1 35970U 93036AVL 15146.07966119  .00002042  00000-0  47273-3 0  9995
2 35970 074.0430 049.4449 0042289 054.2194 306.2888 14.55224531303876

Source of the keplerian elements: AFSPC

N2YO: 351